Regional Weather Roundup
Issued by NWS

Home | Current Version | Previous Version | Graphics & Text | Print | Product List | Glossary On
Versions: 1 2 3 4 5 6 7 8 9 10 11 12 13 14 15 16 17 18 19 20 21 22 23 24 25 26 27 28 29 30 31 32 33 34 35 36 37 38 39 40 41 42 43 44 45 46 47 48 49 50
000
ASUS45 KABQ 280010
RWRNM
NEW MEXICO REGIONAL WEATHER ROUNDUP
NATIONAL WEATHER SERVICE ALBUQUERQUE NM
600 PM MDT TUE SEP 27 2016

NOTE: "FAIR" MEANS FEW OR NO CLOUDS BELOW 12,000 FEET AGL WITH NO
       SIGNIFICANT WEATHER OR OBSTRUCTIONS TO VISION.

      THIS PRODUCT IS RELEASED AS TWO VERSIONS.  ONE VERSION NEAR
      THE TOP OF THE HOUR CONTAINING PRELIMINARY DATA FROM ALBUQUERQUE
      AND OTHER STATIONS.  A FINAL VERSION WITH ADDITIONAL DATA IS
      ISSUED ABOUT 10 MINUTES AFTER THE HOUR.

NMZ501-503-504-510>518-280100-
NORTHWEST PLATEAU/NORTHCENTRAL MOUNTAINS

CITY           SKY/WX    TMP DP  RH WIND       PRES   REMARKS
FARMINGTON     FAIR      74  29  19 SW7       30.17S
6HR MIN TEMP:  67; 6HR MAX TEMP:  77;

LOS ALAMOS     FAIR      69  17  14 S12       30.29S
SANTA FE       FAIR      73  24  16 SW6       30.23S
6HR MIN TEMP:  66; 6HR MAX TEMP:  76;

TAOS           FAIR      72  23  16 SW13      30.26S

$$
NMZ402-403-502-505>509-280100-
WESTCENTRAL MOUNTAINS/SOUTHWEST MOUNTAINS

CITY           SKY/WX    TMP DP  RH WIND       PRES   REMARKS
GALLUP         PTSUNNY   59  48  67 MISG      30.24F
6HR MIN TEMP:  57; 6HR MAX TEMP:  74; 6HR PCP:  0.01;

SILVER CITY    FAIR      69  47  45 SE9       30.18F

$$
NMZ407-409-411-412-280100-
SOUTHERN DESERTS

CITY           SKY/WX    TMP DP  RH WIND       PRES   REMARKS
DEMING         FAIR      72  49  44 E13       30.13F
6HR MIN TEMP:  64; 6HR MAX TEMP:  74;

LAS CRUCES     FAIR      71  48  44 CALM      30.16S
HOLLOMAN AFB   FAIR      75  45  34 E3        30.12F
ALAMOGORDO     FAIR      73  46  38 W3        30.14F
T OR C         FAIR      74  47  38 SW9       30.15F
6HR MIN TEMP:  66; 6HR MAX TEMP:  75;


$$
NMZ519>523-280100-
CENTRAL VALLEYS/CENTRAL HIGHLANDS

CITY           SKY/WX    TMP DP  RH WIND       PRES   REMARKS
ALBUQUERQUE    FAIR      76  36  23 NW5       30.18F
6HR MIN TEMP:  66; 6HR MAX TEMP:  77;

DOUBLE EAGLE   MOSUNNY   73  36  25 SE6       30.21F
MORIARTY ARPT  FAIR      73  28  18 SE3       30.23F
6HR MIN TEMP:  67; 6HR MAX TEMP:  74;

CLINES CORNERS FAIR      68  35  29 SW3       30.28F
6HR MIN TEMP:  64; 6HR MAX TEMP:  72;

BELEN          FAIR      76  38  26 S7        30.17F
6HR MIN TEMP:  67; 6HR MAX TEMP:  77;

SOCORRO        FAIR      76  41  28 SE10      30.15F
6HR MIN TEMP:  68; 6HR MAX TEMP:  78;


$$
NMZ524>526-539-540-280100-
SOUTHCENTRAL MOUNTAINS

CITY           SKY/WX    TMP DP  RH WIND       PRES   REMARKS
RUIDOSO        FAIR      66  32  28 E9        30.29S

$$
NMZ527>531-280100-
NORTHEAST HIGHLANDS/NORTHEAST PLAINS

CITY           SKY/WX    TMP DP  RH WIND       PRES   REMARKS
LAS VEGAS      FAIR      70  20  15 S8        30.25F
6HR MIN TEMP:  68; 6HR MAX TEMP:  74;

RATON          FAIR      73  32  22 S8        30.20S
6HR MIN TEMP:  71; 6HR MAX TEMP:  77;

CLAYTON        FAIR      75  40  28 S8        30.13S
6HR MIN TEMP:  75; 6HR MAX TEMP:  82;


$$
NMZ532>537-280100-
EASTCENTRAL PLAINS

CITY           SKY/WX    TMP DP  RH WIND       PRES   REMARKS
TUCUMCARI      FAIR      82  30  15 S6        30.09S
6HR MIN TEMP:  75; 6HR MAX TEMP:  84;

CANNON AFB     FAIR      74  39  28 W5        30.14F
6HR MIN TEMP:  71; 6HR MAX TEMP:  78;

CLOVIS AIRPORT FAIR      72  45  37 S5        30.14S

$$
NMZ028-029-538-280100-
SOUTHEAST PLAINS

CITY           SKY/WX    TMP DP  RH WIND       PRES   REMARKS
ROSWELL        FAIR      75  34  22 S9        30.13S
6HR MIN TEMP:  71; 6HR MAX TEMP:  78;

ARTESIA        FAIR      73  46  38 S7        30.13S
CARLSBAD       FAIR      70  47  43 SE7       30.12S
6HR MIN TEMP:  66; 6HR MAX TEMP:  72;

HOBBS          CLEAR     73  36  25 CALM      30.15S


$$




USA.gov is the U.S. government's official web portal to all federal, state and local government web resources and services.